Вернуться в каталог

SL-12 R/B(2)

АктивенMEO
NORAD 23625·ROCKET BODY·🇷🇺 Russia

Запущен Jul 24, 1995 с Baikonur Cosmodrome

Loading…

Ближайшие Пролёты (ближайшие 24 часа)

TLE

СвежийSource: Space-Track

Эпоха: Sep 14, 2026, 13:52 UTC

1 23625U 95037F   26257.57806812  .00000025  00000-0  00000-0 0  9998
2 23625  65.4791 198.6871 0008699 194.2936 347.0948  2.13424628242687

Отслеживайте SL-12 R/B(2) в реальном времени с AllMySat

Download on the App Store